Track STARLINK-2475 now! 10-day predictions STARLINK-2475 is classified as:
1 48133U 21027AT 22183.54048344 .00000461 00000-0 49843-4 0 9992 2 48133 53.0552 94.7302 0001650 70.0353 290.0813 15.06401198 69526